Location: Newark
(46.8500°N, 5.1667°E)
Time: 04:39:52
(UTC+00:00)

ISS - Pass Details

Date: 23 September 2019
Orbit: 411 x 421 km, 51.6° (Epoch: 19 October)

Event Time Altitude Azimuth Distance (km) Brightness Sun altitude
Rises 20:05:52 0° 271° (W) 2,342 1.0 -25.4°
Reaches altitude 10° 20:08:03 10° 280° (W) 1,481 -0.1 -25.7°
Enters shadow 20:09:59 27° 304° (NW) 825 -1.7 -26.0°
